Location: Melque
(41.0517°N, 4.4694°W)
Time: 16:43:18
(UTC+00:00)

Cosmos 1898 Rocket - Pass Details

Date: 11 December 2025
Orbit: 749 x 779 km, 74.0° (Epoch: 16 January)

Event Time Altitude Azimuth Distance (km) Brightness Sun altitude
Rises 18:20:13 0° 187° (S) 3,179 7.0 -16.5°
Reaches altitude 10° 18:22:35 10° 183° (S) 2,259 6.2 -16.9°
Maximum altitude 18:27:36 58° 105° (ESE) 871 3.5 -17.8°
Enters shadow 18:30:26 25° 35° (NE) 1,473 4.5 -18.4°
